Weather in Iskushta

Russia / Republic of Bashkortostan     54°32′21″N   57°35′06″E
temp.,
°C
wind,
m/s
gust,
m/s
humid.,
%
clouds,
%
prec.,
mm/h
press.,
hPa
HPBL,
m
8 august, mon
mon823:00+19e1174100 0.0 101914
02:00+18e1177100 0.0 101911
05:00+15e119038 0.0 102011
08:00+19e117258 0.0 1020117
11:00+23ene1361100 0.0 1019417
14:00+28n243966 0.0 10182457
17:00+23ne2565100 0.0 1018152
20:00+20ene117498 0.0 101917
9 august, tue
tue923:00+17ene1183100 0.0 101911
02:00+16e1185100 0.0 101911
05:00+15e1189100 0.0 102011
08:00+19ese117430 0.0 1020122
11:00+25nne02515 0.0 10191179
14:00+28nne233790 0.0 10182741
17:00+23n2363100 0.0 1018135
20:00+21nne1180100 0.2 101913
10 august, wed
wed1023:00+17e1187100 0.3 101911
02:00+16ese1190100 0.0 101911
05:00+15ese11925 0.1 102011
08:00+18se127990 0.0 1020108
11:00+25wsw115463 0.0 1019661
14:00+27w224493 0.0 10181961
17:00+25wnw235687 0.0 1018728
20:00+21nne018218 0.8 101811
11 august, thu
thu1123:00+16ese1194100 2.8 101911
02:00+15se119433 0.4 101813
05:00+15ese119578 0.4 101814
08:00+17sse12916 0.0 1018122
11:00+23wsw2462100 0.0 1017875
14:00+23w4568100 0.9 10161079
17:00+20nnw369178 3.5 1015519
20:00+16s239730 4.6 101799
12 august, fri
fri1223:00+13s119813 4.7 101721
02:00+12w239897 0.1 1018119
05:00+11w1297100 0.3 101881
08:00+11w2698100 0.1 1019482
11:00+12w2597100 0.3 1020463
14:00+16wnw3674100 0.3 1019971
17:00+18nw5954100 0.3 10181568
20:00+15wnw287283 0.0 1018470